Regional Weather Roundup
Issued by NWS

Home | Current Version | Previous Version | Text Only | Print | Product List | Glossary Off
Versions: 1 2 3 4 5 6 7 8 9 10 11 12 13 14 15 16 17 18 19 20 21 22 23 24 25 26 27 28 29 30 31 32 33 34 35 36 37 38 39 40 41 42 43 44 45 46 47 48 49 50

000
ASUS43 KMKX 290300
RWRWI

WISCONSIN REGIONAL WEATHER ROUNDUP
NATIONAL WEATHER SERVICE MILWAUKEE/SULLIVAN WI
1000 PM CDT WED JUN 28 2017

NOTE: "FAIR" INDICATES FEW OR NO CLOUDS BELOW 12,000 FEET WITH NO
SIGNIFICANT WEATHER AND/OR OBSTRUCTIONS TO VISIBILITY.

WIZ001-002-006>008-014>016-023>028-290400-
NORTHWEST WISCONSIN

CITY           SKY/WX    TMP DP  RH WIND       PRES   REMARKS
SUPERIOR ARPT  NOT AVBL
ASHLAND        MOCLDY    66  65  96 SE6       29.49F
HAYWARD        CLOUDY    67  65  93 S3        29.52R
SIREN          CLOUDY    68  62  82 W9        29.52R
CUMBERLAND     MOCLDY    64  63  94 S7        29.54S
RICE LAKE      MOCLDY    67  65  94 S6        29.55S
CHETEK         MOCLDY    67  66  99 S5        29.55S
LADYSMITH      CLOUDY    67  66  96 S9        29.57S
EAU CLAIRE     NOT AVBL
MENOMONIE      CLOUDY    68  66  94 S8        29.58R
NEW RICHMOND   CLOUDY    68  60  74 SW9       29.55S
OSCEOLA        CLOUDY    70  63  78 W5        29.56S
$$

WIZ003>005-009-010-017-018-290400-
NORTH CENTRAL WISCONSIN

CITY           SKY/WX    TMP DP  RH WIND       PRES   REMARKS
MANITOWISH WTR CLOUDY    64  64 100 S5        29.57S
ARBOR VITAE    CLOUDY    64  63  96 S6        29.58R
WOODRUFF       CLOUDY    64  63  96 S6        29.58R
RHINELANDER    CLOUDY    64  64 100 SE5       29.61R
EAGLE RIVER    CLOUDY    63  63 100 SE6       29.59F FOG
LAND O LAKES   CLOUDY    63  63  99 SE6       29.62S FOG
PHILLIPS       CLOUDY    66  66 100 S9        29.55R
TOMAHAWK       NOT AVBL
MEDFORD        CLOUDY    65  64  96 S8        29.59R
MERRILL        CLOUDY    66  66 100 S6        29.61R
$$

WIZ029-030-035-036-043>047-290400-
CENTRAL WISCONSIN

CITY           SKY/WX    TMP DP  RH WIND       PRES   REMARKS
WAUSAU         CLOUDY    66  65  96 S6        29.59R
MOSINEE        PTCLDY    64  64 100 S6        29.61R FOG
MARSHFIELD     CLOUDY    66  64  93 SW10      29.61R
STEVENS POINT  CLOUDY    65  65 100 S8        29.61R
WAUPACA        CLOUDY    68  68  99 SE7       29.61S
WAUTOMA        CLOUDY    67  65  93 S8        29.65R
WISC RAPIDS    MOCLDY    67  66  97 SW8       29.64R
CAMP DOUGLAS   NOT AVBL
$$

WIZ011>013-019>022-031-037>040-048>050-290400-
NORTHEAST WISCONSIN

CITY           SKY/WX    TMP DP  RH WIND       PRES   REMARKS
ANTIGO         CLOUDY    64  64 100 S9        29.64R FOG
SHAWANO        CLOUDY    68  64  88 S8        29.61F
OCONTO         CLOUDY    63  61  95 SE7       29.61F
STURGEON BAY     N/A     60  59  96 S18       29.64F
GREEN BAY      CLOUDY    65  65 100 S9        29.64F
MANITOWOC      CLOUDY    59  57  94 S10       29.67S
APPLETON       MOCLDY    66  66 100 S8        29.62F
CLINTONVILLE   CLOUDY    64  64 100 S10       29.60F
OSHKOSH        CLOUDY    65  61  87 S14G24    29.64F
$$

WIZ032>034-041-042-053>061-290400-
SOUTHWEST WISCONSIN

CITY           SKY/WX    TMP DP  RH WIND       PRES   REMARKS
LA CROSSE      TSTM      70  67  90 SE7       29.62R
SPARTA         LGT RAIN  65  65  99 S7        29.63R
VIROQUA        CLOUDY    66  66  99 CALM      29.67R
BOSCOBEL       CLOUDY    68  66  93 CALM      29.66R
PRAIRIE DU CHI CLOUDY    67  66  96 CALM      29.63R
PLATTEVILLE    MOCLDY    67  67 100 S8        29.69F
$$

WIZ056-057-062-063-064-067-068-290400-
SOUTH CENTRAL WISCONSIN

CITY           SKY/WX    TMP DP  RH WIND       PRES   REMARKS
REEDSBURG      CLOUDY    66  66  99 SW7       29.67R
BARABOO/DELLS  CLOUDY    66  63  90 S9        29.66F
LONE ROCK      CLOUDY    69  65  86 CALM      29.68R
MINERAL POINT  CLOUDY    68  68 100 S7        29.70F
MADISON        TSTM      66  63  90 S13       29.71R
MIDDLETON      CLOUDY    67  65  92 SW7       29.71R
WATERTOWN      CLOUDY    65  65 100 S10G21    29.73R THUNDER
MONROE         RAIN      66  64  94 SW14      29.74R
JANESVILLE     LGT RAIN  64  64 100 S13       29.76R
$$

WIZ051-052-058>065-066-070>072-290400-
SOUTHEAST WISCONSIN

CITY           SKY/WX    TMP DP  RH WIND       PRES   REMARKS
MILWAUKEE      TSTM      66  64  93 S16G24    29.77F
WAUKESHA       NOT AVBL
MILWAUKEE/TIMM LGT RAIN  63  59  88 S10       29.74F
RACINE         RAIN      66  63  90 S9        29.83R
KENOSHA        RAIN      65  62  90 SW7       29.83R FOG
FOND DU LAC    CLOUDY    65  59  81 S14       29.67F
SHEBOYGAN      CLOUDY    63  62  97 SW9       29.70R
WEST BEND      CLOUDY    63  61  94 SW10G17   29.73R
JUNEAU         CLOUDY    62  60  93 S8        29.73R
$$

LSZ147-162-290400-
LAKE SUPERIOR

STATION/POSITION TIME  TEMP    WIND        PRES    WAVE
                       AIR SEA DIR/SP/G            HT/PER
                 (UTC) (F)     (DEG/KT/KT) (MB)    (FT/S)
W MID LAKE BUOY  0150   45 39   60/ 12/ 14 1001.7F   1/ 3
DEVILS ISLAND    0200   55      90/ 11/ 11 1000.0F
SAXON HARBOR     0240   65     160/  1/  2  999.0F
$$

LMZ867-665-643>646-290400-
LAKE MICHIGAN

STATION/POSITION TIME  TEMP    WIND        PRES    WAVE
                       AIR SEA DIR/SP/G            HT/PER
                 (UTC) (F)     (DEG/KT/KT) (MB)    (FT/S)
CHAMBERS ISLAND  0240   63     150/  7/ 14 1003.7F
S GREEN BAY BUOY 0230   65     160/ 16/ 17 1003.2F
N MID LAKE BUOY  0150   57 54  160/ 12/ 14 1005.5F   5/ 7
NORTHPORT PIER   0240   61     160/ 10/ 16 1004.4F
KEWAUNEE LAKESHO 0230   54     180/ 14/ 17 1004.7R
SHEBOYGAN LAKESH 0200   56     140/ 29/ 30 1001.5F
PORT WASHINGTON  0240   58     200/  9/ 15 1007.1R
ATWATER BUOY     0109   59 51  300/ 16/ 21 1009.0F
MILWAUKEE LAKESH 0230   60     160/ 17/ 17   N/A
S MID LAKE BUOY  0150   65 60  180/  8/ 10 1007.9F   4/ 6
KENOSHA   LAKESH 0200   73     320/ 13/ 17 1008.1
$$

TC  - TEMPERATURE IN CELSIUS
VSB - VISIBILITY IN STATUTE MILES
WCI - WIND CHILL INDEX
HX  - HEAT INDEX




USA.gov is the U.S. government's official web portal to all federal, state and local government web resources and services.